{"data":{"norad_id":68673,"epoch":"2026-09-20T02:46:58.215648Z","epoch_age_seconds":76948,"freshness":"FRESH","line1":"1 68673U 26077M   26263.11595157  .00010607  00000+0  33025-3 0  9994","line2":"2 68673  97.2855 133.0110 0001718  95.1237 265.0201 15.33461110 24952","mean_motion":15.3346111,"eccentricity":0.0001718,"inclination_deg":97.2855,"raan_deg":133.011,"arg_perigee_deg":95.1237,"mean_anomaly_deg":265.0201,"bstar":0.00033025,"rev_number":2495,"period_min":93.905218111466,"perigee_km":464.31950685279,"apogee_km":466.67097889144,"semimajor_km":6843.6322428721,"source":"CELESTRAK","updated_at":"2026-09-20T09:00:43.951875Z"}}